LEMUR 2 OBA-NI-JESU

导读

LEMUR 2 OBA-NI-JESU是美国Spire Global公司于2024年1月31日发射的3U型纳米立方体卫星,隶属于Lemur-2卫星星座。该卫星运行于400-600公里的近地轨道,主要承担无线电掩星探测和船舶自动识别系统跟踪任务,可为全球气象观测、海上交通监测提供数据支持,是Lemur-2商业化小卫星星座的最新组网成员。

基本信息
目录编号:
58902
目录名称:
LEMUR 2 OBA-NI-JESU
国际标识:
2024-022D
轨道中心:
EARTH
卫星名称:
LEMUR 2 OBA-NI-JESU
卫星全名:
--
卫星状态:
在轨 (已飞行895 天)
发射日期:
2024-01-31 UTC
国别 :
美国 (US)
星等 :
--
轨道信息
数据来源 国际轨道数据
星历时间: 2026-06-13T14:27:58+0800
轨道信息已过期31天
半长轴: 6552.524km
偏心率: 0.0009182
轨道倾角: 97.360°
近地点辐角 248.534°
升交点赤经 29.472°
平近点角 111.498°
近地点: 168.37km
远地点: 180.404km
周期: 87.978分钟
每日圈数: 16.367782
详细信息
使用方式:
暂无
2D轨道图
3D轨道图
轨道高度分析图
轨道倾角分析图
轨道综合分析图
查看轨道综合分析图